Time,TemperatureF,DewpointF,PressureIn,WindDirection,WindDirectionDegrees,WindSpeedMPH,WindSpeedGustMPH,Humidity,HourlyPrecipIn,Conditions,Clouds,dailyrainin,SolarRadiationWatts/m^2,SoftwareType,DateUTC
2013-07-02 00:01:00,67.9,66.7,30.08,South,181,5.0,9.0,96,0.00,,,0.01,0,HR-IXPWINDi_r2_v1.2.,2013-07-02 04:01:00,
2013-07-02 00:06:00,68.0,66.8,30.08,South,186,5.0,9.0,96,0.00,,,0.01,0,HR-IXPWINDi_r2_v1.2.,2013-07-02 04:06:00,
2013-07-02 00:11:00,68.2,67.2,30.08,SSE,165,5.0,8.0,97,0.00,,,0.01,0,HR-IXPWINDi_r2_v1.2.,2013-07-02 04:11:00,
2013-07-02 00:16:00,68.4,67.4,30.08,South,169,7.0,9.0,97,0.00,,,0.01,0,HR-IXPWINDi_r2_v1.2.,2013-07-02 04:16:00,
2013-07-02 00:21:00,68.0,66.8,30.08,South,188,9.0,10.0,96,0.00,,,0.01,0,HR-IXPWINDi_r2_v1.2.,2013-07-02 04:21:00,
2013-07-02 00:26:00,68.1,66.9,30.08,SSE,153,7.0,10.0,96,0.00,,,0.01,0,HR-IXPWINDi_r2_v1.2.,2013-07-02 04:26:00,
2013-07-02 00:31:00,68.0,66.8,30.08,South,181,5.0,10.0,96,0.00,,,0.01,0,HR-IXPWINDi_r2_v1.2.,2013-07-02 04:31:00,
2013-07-02 00:37:00,68.3,67.3,30.08,South,181,3.0,10.0,97,0.00,,,0.01,0,HR-IXPWINDi_r2_v1.2.,2013-07-02 04:37:00,
2013-07-02 00:43:00,68.6,67.6,30.07,South,186,5.0,8.0,97,0.00,,,0.01,0,HR-IXPWINDi_r2_v1.2.,2013-07-02 04:43:00,
2013-07-02 00:48:00,68.7,67.7,30.08,South,169,4.0,8.0,97,0.00,,,0.01,0,HR-IXPWINDi_r2_v1.2.,2013-07-02 04:48:00,
2013-07-02 00:53:00,68.5,67.5,30.08,SSE,163,6.0,7.0,97,0.00,,,0.01,0,HR-IXPWINDi_r2_v1.2.,2013-07-02 04:53:00,
2013-07-02 00:58:00,68.3,67.3,30.08,SSE,158,5.0,9.0,97,0.00,,,0.01,0,HR-IXPWINDi_r2_v1.2.,2013-07-02 04:58:00,
2013-07-02 01:04:00,68.0,66.8,30.07,South,177,6.0,9.0,96,0.00,,,0.01,0,HR-IXPWINDi_r2_v1.2.,2013-07-02 05:04:00,
2013-07-02 01:09:00,67.8,66.6,30.08,South,173,5.0,9.0,96,0.00,,,0.01,0,HR-IXPWINDi_r2_v1.2.,2013-07-02 05:09:00,
2013-07-02 01:14:00,67.9,67.0,30.08,South,183,8.0,8.0,97,0.00,,,0.01,0,HR-IXPWINDi_r2_v1.2.,2013-07-02 05:14:00,
2013-07-02 01:19:00,68.0,67.1,30.08,South,188,8.0,11.0,97,0.00,,,0.01,0,HR-IXPWINDi_r2_v1.2.,2013-07-02 05:19:00,
2013-07-02 01:25:00,67.7,66.5,30.08,South,171,3.0,11.0,96,0.00,,,0.01,0,HR-IXPWINDi_r2_v1.2.,2013-07-02 05:25:00,
2013-07-02 01:30:00,67.7,66.5,30.08,South,178,3.0,8.0,96,0.00,,,0.01,0,HR-IXPWINDi_r2_v1.2.,2013-07-02 05:30:00,
2013-07-02 01:35:00,67.6,66.7,30.08,South,169,2.0,6.0,97,0.00,,,0.01,0,HR-IXPWINDi_r2_v1.2.,2013-07-02 05:35:00,
2013-07-02 01:40:00,67.7,66.8,30.08,South,172,3.0,6.0,97,0.00,,,0.01,0,HR-IXPWINDi_r2_v1.2.,2013-07-02 05:40:00,
2013-07-02 01:45:00,67.6,66.7,30.08,South,179,3.0,6.0,97,0.00,,,0.01,0,HR-IXPWINDi_r2_v1.2.,2013-07-02 05:45:00,
2013-07-02 01:50:00,67.6,66.7,30.08,South,169,5.0,7.0,97,0.00,,,0.01,0,HR-IXPWINDi_r2_v1.2.,2013-07-02 05:50:00,
2013-07-02 01:55:00,67.7,66.8,30.08,South,189,3.0,7.0,97,0.00,,,0.01,0,HR-IXPWINDi_r2_v1.2.,2013-07-02 05:55:00,
2013-07-02 02:00:00,67.8,66.9,30.09,South,175,3.0,7.0,97,0.00,,,0.01,0,HR-IXPWINDi_r2_v1.2.,2013-07-02 06:00:00,
2013-07-02 02:05:00,68.2,67.2,30.09,South,175,3.0,6.0,97,0.00,,,0.01,0,HR-IXPWINDi_r2_v1.2.,2013-07-02 06:05:00,
2013-07-02 02:10:00,68.3,67.3,30.09,South,186,2.0,6.0,97,0.00,,,0.01,0,HR-IXPWINDi_r2_v1.2.,2013-07-02 06:10:00,
2013-07-02 02:16:00,68.5,67.5,30.09,South,179,3.0,5.0,97,0.00,,,0.01,0,HR-IXPWINDi_r2_v1.2.,2013-07-02 06:16:00,
2013-07-02 02:21:00,68.7,67.7,30.09,South,188,0.0,6.0,97,0.00,,,0.01,0,HR-IXPWINDi_r2_v1.2.,2013-07-02 06:21:00,
2013-07-02 02:26:00,68.8,67.8,30.09,SSE,163,1.0,6.0,97,0.00,,,0.01,0,HR-IXPWINDi_r2_v1.2.,2013-07-02 06:26:00,
2013-07-02 02:31:00,68.4,67.4,30.08,South,178,4.0,7.0,97,0.00,,,0.01,0,HR-IXPWINDi_r2_v1.2.,2013-07-02 06:31:00,
2013-07-02 02:37:00,68.1,67.2,30.09,South,187,8.0,9.0,97,0.00,,,0.01,0,HR-IXPWINDi_r2_v1.2.,2013-07-02 06:37:00,
2013-07-02 02:42:00,68.3,67.3,30.09,South,182,9.0,10.0,97,0.00,,,0.01,0,HR-IXPWINDi_r2_v1.2.,2013-07-02 06:42:00,
2013-07-02 02:47:00,68.4,67.4,30.09,South,183,7.0,10.0,97,0.00,,,0.01,0,HR-IXPWINDi_r2_v1.2.,2013-07-02 06:47:00,
2013-07-02 02:52:00,68.6,67.6,30.09,South,182,9.0,12.0,97,0.00,,,0.01,0,HR-IXPWINDi_r2_v1.2.,2013-07-02 06:52:00,
2013-07-02 02:57:00,68.5,67.5,30.09,SW,214,4.0,12.0,97,0.00,,,0.01,0,HR-IXPWINDi_r2_v1.2.,2013-07-02 06:57:00,
2013-07-02 03:03:00,68.4,67.4,30.09,SE,136,4.0,10.0,97,0.00,,,0.01,0,HR-IXPWINDi_r2_v1.2.,2013-07-02 07:03:00,
2013-07-02 03:08:00,68.1,67.2,30.09,SE,142,3.0,7.0,97,0.00,,,0.01,0,HR-IXPWINDi_r2_v1.2.,2013-07-02 07:08:00,
2013-07-02 03:13:00,67.8,66.9,30.09,South,171,4.0,7.0,97,0.00,,,0.01,0,HR-IXPWINDi_r2_v1.2.,2013-07-02 07:13:00,
2013-07-02 03:18:00,68.0,67.1,30.09,SSE,147,3.0,8.0,97,0.00,,,0.01,0,HR-IXPWINDi_r2_v1.2.,2013-07-02 07:18:00,
2013-07-02 03:23:00,68.1,67.2,30.09,SSE,157,3.0,8.0,97,0.00,,,0.01,0,HR-IXPWINDi_r2_v1.2.,2013-07-02 07:23:00,
2013-07-02 03:28:00,67.9,67.0,30.09,SSE,148,2.0,7.0,97,0.00,,,0.01,0,HR-IXPWINDi_r2_v1.2.,2013-07-02 07:28:00,
2013-07-02 03:34:00,68.0,67.1,30.09,South,169,4.0,7.0,97,0.00,,,0.01,0,HR-IXPWINDi_r2_v1.2.,2013-07-02 07:34:00,
2013-07-02 03:39:00,68.3,67.3,30.08,SE,136,5.0,7.0,97,0.00,,,0.01,0,HR-IXPWINDi_r2_v1.2.,2013-07-02 07:39:00,
2013-07-02 03:44:00,68.2,67.2,30.09,SE,143,3.0,7.0,97,0.00,,,0.01,0,HR-IXPWINDi_r2_v1.2.,2013-07-02 07:44:00,
2013-07-02 03:49:00,68.4,67.4,30.08,South,169,5.0,7.0,97,0.00,,,0.01,0,HR-IXPWINDi_r2_v1.2.,2013-07-02 07:49:00,
2013-07-02 03:54:00,68.4,67.4,30.09,ESE,118,5.0,7.0,97,0.00,,,0.01,0,HR-IXPWINDi_r2_v1.2.,2013-07-02 07:54:00,
2013-07-02 03:59:00,68.4,67.4,30.09,SE,146,4.0,8.0,97,0.00,,,0.01,0,HR-IXPWINDi_r2_v1.2.,2013-07-02 07:59:00,
2013-07-02 04:05:00,68.3,67.3,30.09,SE,138,5.0,8.0,97,0.00,,,0.01,0,HR-IXPWINDi_r2_v1.2.,2013-07-02 08:05:00,
2013-07-02 04:10:00,68.1,67.2,30.09,SSE,165,5.0,7.0,97,0.00,,,0.01,0,HR-IXPWINDi_r2_v1.2.,2013-07-02 08:10:00,
2013-07-02 04:15:00,68.0,67.1,30.10,SSE,156,2.0,7.0,97,0.00,,,0.02,0,HR-IXPWINDi_r2_v1.2.,2013-07-02 08:15:00,
2013-07-02 04:20:00,68.0,67.1,30.10,SSE,162,3.0,7.0,97,0.00,,,0.02,0,HR-IXPWINDi_r2_v1.2.,2013-07-02 08:20:00,
2013-07-02 04:25:00,68.5,67.5,30.10,SSE,160,3.0,6.0,97,0.00,,,0.02,0,HR-IXPWINDi_r2_v1.2.,2013-07-02 08:25:00,
2013-07-02 04:31:00,68.7,67.7,30.10,South,176,3.0,7.0,97,0.00,,,0.02,0,HR-IXPWINDi_r2_v1.2.,2013-07-02 08:31:00,
2013-07-02 04:36:00,68.6,67.6,30.10,SSE,152,3.0,7.0,97,0.00,,,0.02,0,HR-IXPWINDi_r2_v1.2.,2013-07-02 08:36:00,
2013-07-02 04:41:00,68.4,67.4,30.10,SE,145,4.0,7.0,97,0.00,,,0.02,0,HR-IXPWINDi_r2_v1.2.,2013-07-02 08:41:00,
2013-07-02 04:46:00,68.3,67.3,30.10,SSE,153,5.0,6.0,97,0.00,,,0.02,0,HR-IXPWINDi_r2_v1.2.,2013-07-02 08:46:00,
2013-07-02 04:52:00,68.4,67.4,30.10,SSE,167,4.0,6.0,97,0.00,,,0.02,0,HR-IXPWINDi_r2_v1.2.,2013-07-02 08:52:00,
2013-07-02 04:57:00,68.6,67.6,30.10,SSE,149,4.0,7.0,97,0.00,,,0.02,0,HR-IXPWINDi_r2_v1.2.,2013-07-02 08:57:00,
2013-07-02 05:02:00,69.0,68.0,30.10,SSE,153,4.0,8.0,97,0.00,,,0.02,0,HR-IXPWINDi_r2_v1.2.,2013-07-02 09:02:00,
2013-07-02 05:07:00,68.9,67.9,30.10,SSE,163,6.0,8.0,97,0.00,,,0.02,0,HR-IXPWINDi_r2_v1.2.,2013-07-02 09:07:00,
2013-07-02 05:12:00,68.8,67.8,30.11,ESE,112,3.0,8.0,97,0.00,,,0.02,0,HR-IXPWINDi_r2_v1.2.,2013-07-02 09:12:00,
2013-07-02 05:17:00,69.0,68.0,30.11,SSE,157,3.0,9.0,97,0.00,,,0.02,0,HR-IXPWINDi_r2_v1.2.,2013-07-02 09:17:00,
2013-07-02 05:22:00,69.3,68.3,30.11,South,180,4.0,9.0,97,0.00,,,0.02,0,HR-IXPWINDi_r2_v1.2.,2013-07-02 09:22:00,
2013-07-02 05:27:00,69.2,68.2,30.11,SE,143,4.0,7.0,97,0.00,,,0.02,0,HR-IXPWINDi_r2_v1.2.,2013-07-02 09:27:00,
2013-07-02 05:32:00,68.8,67.5,30.11,SSE,155,4.0,7.0,96,0.00,,,0.02,5,HR-IXPWINDi_r2_v1.2.,2013-07-02 09:32:00,
2013-07-02 05:37:00,68.4,67.1,30.12,South,173,4.0,7.0,96,0.00,,,0.02,5,HR-IXPWINDi_r2_v1.2.,2013-07-02 09:37:00,
2013-07-02 05:43:00,68.4,67.4,30.12,SSE,158,3.0,7.0,97,0.00,,,0.02,7,HR-IXPWINDi_r2_v1.2.,2013-07-02 09:43:00,
2013-07-02 05:48:00,68.2,66.9,30.12,South,181,2.0,6.0,96,0.00,,,0.02,9,HR-IXPWINDi_r2_v1.2.,2013-07-02 09:48:00,
2013-07-02 05:53:00,68.1,66.9,30.12,SE,143,4.0,6.0,96,0.00,,,0.02,11,HR-IXPWINDi_r2_v1.2.,2013-07-02 09:53:00,
2013-07-02 05:58:00,68.3,67.3,30.12,South,186,9.0,9.0,97,0.00,,,0.02,12,HR-IXPWINDi_r2_v1.2.,2013-07-02 09:58:00,
2013-07-02 06:03:00,68.7,67.7,30.11,South,182,9.0,10.0,97,0.00,,,0.02,16,HR-IXPWINDi_r2_v1.2.,2013-07-02 10:03:00,
2013-07-02 06:08:00,68.5,67.5,30.11,SSE,163,1.0,10.0,97,0.00,,,0.02,19,HR-IXPWINDi_r2_v1.2.,2013-07-02 10:08:00,
2013-07-02 06:14:00,68.5,67.5,30.12,SSE,150,3.0,10.0,97,0.00,,,0.02,23,HR-IXPWINDi_r2_v1.2.,2013-07-02 10:14:00,
2013-07-02 06:19:00,68.6,67.6,30.12,SSE,154,2.0,7.0,97,0.00,,,0.02,28,HR-IXPWINDi_r2_v1.2.,2013-07-02 10:19:00,
2013-07-02 06:24:00,69.0,68.0,30.12,SSE,152,3.0,6.0,97,0.00,,,0.02,44,HR-IXPWINDi_r2_v1.2.,2013-07-02 10:24:00,
2013-07-02 06:29:00,68.8,67.8,30.12,SSE,161,4.0,10.0,97,0.00,,,0.02,40,HR-IXPWINDi_r2_v1.2.,2013-07-02 10:29:00,
2013-07-02 06:34:00,68.7,67.7,30.12,South,187,6.0,10.0,97,0.00,,,0.02,32,HR-IXPWINDi_r2_v1.2.,2013-07-02 10:34:00,
2013-07-02 06:39:00,68.2,66.9,30.12,South,177,6.0,9.0,96,0.00,,,0.02,28,HR-IXPWINDi_r2_v1.2.,2013-07-02 10:39:00,
2013-07-02 06:44:00,68.0,67.1,30.12,SSE,161,5.0,11.0,97,0.00,,,0.02,26,HR-IXPWINDi_r2_v1.2.,2013-07-02 10:44:00,
2013-07-02 06:49:00,67.8,66.9,30.13,South,175,7.0,11.0,97,0.00,,,0.02,16,HR-IXPWINDi_r2_v1.2.,2013-07-02 10:49:00,
2013-07-02 06:55:00,67.6,66.7,30.13,South,179,7.0,10.0,97,0.00,,,0.02,21,HR-IXPWINDi_r2_v1.2.,2013-07-02 10:55:00,
2013-07-02 07:00:00,67.6,66.7,30.13,South,173,4.0,10.0,97,0.00,,,0.02,33,HR-IXPWINDi_r2_v1.2.,2013-07-02 11:00:00,
2013-07-02 07:05:00,67.4,66.5,30.14,South,170,5.0,9.0,97,0.00,,,0.02,44,HR-IXPWINDi_r2_v1.2.,2013-07-02 11:05:00,
2013-07-02 07:10:00,67.3,66.4,30.14,SSW,206,5.0,9.0,97,0.00,,,0.02,60,HR-IXPWINDi_r2_v1.2.,2013-07-02 11:10:00,
2013-07-02 07:15:00,67.9,67.0,30.14,SSW,200,9.0,10.0,97,0.00,,,0.02,54,HR-IXPWINDi_r2_v1.2.,2013-07-02 11:15:00,
2013-07-02 07:20:00,68.8,68.1,30.14,South,183,10.0,13.0,98,0.00,,,0.02,47,HR-IXPWINDi_r2_v1.2.,2013-07-02 11:20:00,
2013-07-02 07:25:00,68.9,67.9,30.14,South,180,9.0,13.0,97,0.00,,,0.02,69,HR-IXPWINDi_r2_v1.2.,2013-07-02 11:25:00,
2013-07-02 07:30:00,68.5,67.5,30.14,South,178,6.0,12.0,97,0.00,,,0.02,76,HR-IXPWINDi_r2_v1.2.,2013-07-02 11:30:00,
2013-07-02 07:36:00,68.3,67.3,30.14,South,183,5.0,11.0,97,0.00,,,0.02,65,HR-IXPWINDi_r2_v1.2.,2013-07-02 11:36:00,
2013-07-02 07:41:00,68.0,67.1,30.14,SSW,205,7.0,10.0,97,0.00,,,0.02,56,HR-IXPWINDi_r2_v1.2.,2013-07-02 11:41:00,
2013-07-02 07:46:00,67.8,66.9,30.14,South,182,7.0,9.0,97,0.00,,,0.02,65,HR-IXPWINDi_r2_v1.2.,2013-07-02 11:46:00,
2013-07-02 07:52:00,67.8,66.9,30.14,South,169,3.0,9.0,97,0.00,,,0.02,81,HR-IXPWINDi_r2_v1.2.,2013-07-02 11:52:00,
2013-07-02 07:57:00,67.8,66.9,30.14,South,182,5.0,7.0,97,0.00,,,0.02,90,HR-IXPWINDi_r2_v1.2.,2013-07-02 11:57:00,
2013-07-02 08:02:00,67.8,66.9,30.14,SSE,163,5.0,10.0,97,0.00,,,0.02,93,HR-IXPWINDi_r2_v1.2.,2013-07-02 12:02:00,
2013-07-02 08:07:00,68.0,67.1,30.14,South,188,7.0,10.0,97,0.00,,,0.02,105,HR-IXPWINDi_r2_v1.2.,2013-07-02 12:07:00,
2013-07-02 08:12:00,68.0,67.1,30.13,South,169,5.0,9.0,97,0.00,,,0.02,135,HR-IXPWINDi_r2_v1.2.,2013-07-02 12:12:00,
2013-07-02 08:18:00,68.1,67.2,30.13,South,186,6.0,9.0,97,0.00,,,0.02,158,HR-IXPWINDi_r2_v1.2.,2013-07-02 12:18:00,
2013-07-02 08:23:00,68.3,67.3,30.14,South,170,6.0,8.0,97,0.00,,,0.02,176,HR-IXPWINDi_r2_v1.2.,2013-07-02 12:23:00,
2013-07-02 08:28:00,68.7,68.0,30.13,South,169,8.0,11.0,98,0.00,,,0.02,197,HR-IXPWINDi_r2_v1.2.,2013-07-02 12:28:00,
2013-07-02 08:33:00,69.0,68.0,30.14,South,189,9.0,12.0,97,0.00,,,0.02,211,HR-IXPWINDi_r2_v1.2.,2013-07-02 12:33:00,
2013-07-02 08:39:00,69.0,68.0,30.14,South,171,7.0,12.0,97,0.00,,,0.02,193,HR-IXPWINDi_r2_v1.2.,2013-07-02 12:39:00,
2013-07-02 08:44:00,69.0,68.0,30.14,SSW,193,5.0,11.0,97,0.00,,,0.02,153,HR-IXPWINDi_r2_v1.2.,2013-07-02 12:44:00,
2013-07-02 08:49:00,68.9,67.9,30.14,South,177,5.0,9.0,97,0.00,,,0.02,176,HR-IXPWINDi_r2_v1.2.,2013-07-02 12:49:00,
2013-07-02 08:54:00,69.2,68.2,30.14,South,182,4.0,9.0,97,0.00,,,0.02,239,HR-IXPWINDi_r2_v1.2.,2013-07-02 12:54:00,
2013-07-02 09:00:00,69.2,68.2,30.14,South,179,2.0,9.0,97,0.00,,,0.02,214,HR-IXPWINDi_r2_v1.2.,2013-07-02 13:00:00,
2013-07-02 09:05:00,69.4,68.4,30.13,SSE,161,2.0,6.0,97,0.00,,,0.02,213,HR-IXPWINDi_r2_v1.2.,2013-07-02 13:05:00,
2013-07-02 09:10:00,69.3,68.0,30.13,South,179,4.0,4.0,96,0.00,,,0.02,239,HR-IXPWINDi_r2_v1.2.,2013-07-02 13:10:00,
2013-07-02 09:15:00,69.9,68.6,30.13,SSE,167,4.0,7.0,96,0.00,,,0.02,315,HR-IXPWINDi_r2_v1.2.,2013-07-02 13:15:00,
2013-07-02 09:21:00,70.1,68.8,30.13,South,171,3.0,7.0,96,0.00,,,0.02,322,HR-IXPWINDi_r2_v1.2.,2013-07-02 13:21:00,
2013-07-02 09:26:00,70.4,68.8,30.14,SE,142,3.0,6.0,95,0.00,,,0.02,271,HR-IXPWINDi_r2_v1.2.,2013-07-02 13:26:00,
2013-07-02 09:31:00,70.6,69.0,30.13,SSE,155,4.0,7.0,95,0.00,,,0.02,209,HR-IXPWINDi_r2_v1.2.,2013-07-02 13:31:00,
2013-07-02 09:36:00,70.6,68.7,30.13,SSE,162,1.0,7.0,94,0.00,,,0.02,202,HR-IXPWINDi_r2_v1.2.,2013-07-02 13:36:00,
2013-07-02 09:41:00,70.3,68.4,30.13,South,177,7.0,7.0,94,0.00,,,0.02,271,HR-IXPWINDi_r2_v1.2.,2013-07-02 13:41:00,
2013-07-02 09:46:00,70.4,68.5,30.14,South,182,8.0,9.0,94,0.00,,,0.02,323,HR-IXPWINDi_r2_v1.2.,2013-07-02 13:46:00,
2013-07-02 09:52:00,70.7,68.8,30.14,SSE,165,3.0,9.0,94,0.00,,,0.02,320,HR-IXPWINDi_r2_v1.2.,2013-07-02 13:52:00,
2013-07-02 09:57:00,71.0,69.1,30.14,SE,143,3.0,9.0,94,0.00,,,0.02,345,HR-IXPWINDi_r2_v1.2.,2013-07-02 13:57:00,
2013-07-02 10:02:00,71.4,69.2,30.14,SE,127,7.0,7.0,93,0.00,,,0.02,345,HR-IXPWINDi_r2_v1.2.,2013-07-02 14:02:00,
2013-07-02 10:07:00,71.3,69.1,30.14,SSE,153,3.0,7.0,93,0.00,,,0.02,369,HR-IXPWINDi_r2_v1.2.,2013-07-02 14:07:00,
2013-07-02 10:13:00,71.3,69.1,30.14,SSE,166,4.0,7.0,93,0.00,,,0.02,279,HR-IXPWINDi_r2_v1.2.,2013-07-02 14:13:00,
2013-07-02 10:18:00,71.2,69.0,30.14,South,175,4.0,7.0,93,0.00,,,0.02,276,HR-IXPWINDi_r2_v1.2.,2013-07-02 14:18:00,
2013-07-02 10:23:00,71.4,69.2,30.14,SE,134,6.0,7.0,93,0.00,,,0.02,299,HR-IXPWINDi_r2_v1.2.,2013-07-02 14:23:00,
2013-07-02 10:28:00,71.9,69.7,30.14,SSE,162,4.0,7.0,93,0.00,,,0.02,390,HR-IXPWINDi_r2_v1.2.,2013-07-02 14:28:00,
2013-07-02 10:33:00,72.1,69.6,30.14,SE,130,4.0,8.0,92,0.00,,,0.02,392,HR-IXPWINDi_r2_v1.2.,2013-07-02 14:33:00,
2013-07-02 10:38:00,72.3,69.8,30.14,ESE,110,5.0,9.0,92,0.00,,,0.02,394,HR-IXPWINDi_r2_v1.2.,2013-07-02 14:38:00,
2013-07-02 10:43:00,73.0,69.8,30.14,SSE,159,6.0,9.0,90,0.00,,,0.02,396,HR-IXPWINDi_r2_v1.2.,2013-07-02 14:43:00,
2013-07-02 10:49:00,73.1,69.9,30.14,ESE,120,4.0,9.0,90,0.00,,,0.02,371,HR-IXPWINDi_r2_v1.2.,2013-07-02 14:49:00,
2013-07-02 10:55:00,73.3,70.1,30.14,SSE,167,6.0,8.0,90,0.00,,,0.02,334,HR-IXPWINDi_r2_v1.2.,2013-07-02 14:55:00,
2013-07-02 11:00:00,73.1,69.9,30.14,SE,136,5.0,8.0,90,0.00,,,0.02,339,HR-IXPWINDi_r2_v1.2.,2013-07-02 15:00:00,
2013-07-02 11:05:00,72.8,69.6,30.14,SSE,153,5.0,8.0,90,0.00,,,0.02,367,HR-IXPWINDi_r2_v1.2.,2013-07-02 15:05:00,
2013-07-02 11:10:00,72.9,69.7,30.14,SE,143,8.0,10.0,90,0.00,,,0.02,225,HR-IXPWINDi_r2_v1.2.,2013-07-02 15:10:00,
2013-07-02 11:16:00,72.7,69.5,30.14,SSE,165,9.0,10.0,90,0.00,,,0.02,313,HR-IXPWINDi_r2_v1.2.,2013-07-02 15:16:00,
2013-07-02 11:21:00,72.6,69.4,30.14,South,169,8.0,10.0,90,0.00,,,0.02,327,HR-IXPWINDi_r2_v1.2.,2013-07-02 15:21:00,
2013-07-02 11:26:00,72.7,69.5,30.14,SE,138,5.0,10.0,90,0.00,,,0.02,313,HR-IXPWINDi_r2_v1.2.,2013-07-02 15:26:00,
2013-07-02 11:31:00,72.3,69.1,30.15,SE,143,4.0,9.0,90,0.00,,,0.02,265,HR-IXPWINDi_r2_v1.2.,2013-07-02 15:31:00,
2013-07-02 11:36:00,72.0,68.8,30.14,SE,140,3.0,8.0,90,0.00,,,0.02,236,HR-IXPWINDi_r2_v1.2.,2013-07-02 15:36:00,
2013-07-02 11:41:00,72.8,70.0,30.14,SSE,165,3.0,6.0,91,0.00,,,0.02,381,HR-IXPWINDi_r2_v1.2.,2013-07-02 15:41:00,
2013-07-02 11:47:00,73.3,69.8,30.14,SE,130,3.0,6.0,89,0.00,,,0.02,466,HR-IXPWINDi_r2_v1.2.,2013-07-02 15:47:00,
2013-07-02 11:52:00,73.6,69.8,30.14,ESE,119,2.0,7.0,88,0.00,,,0.02,524,HR-IXPWINDi_r2_v1.2.,2013-07-02 15:52:00,
2013-07-02 11:57:00,73.3,69.5,30.14,South,177,6.0,7.0,88,0.00,,,0.02,534,HR-IXPWINDi_r2_v1.2.,2013-07-02 15:57:00,
2013-07-02 12:02:00,73.9,70.4,30.14,South,186,5.0,7.0,89,0.00,,,0.00,325,HR-IXPWINDi_r2_v1.2.,2013-07-02 16:02:00,
2013-07-02 12:07:00,74.6,70.8,30.14,South,191,8.0,12.0,88,0.00,,,0.00,422,HR-IXPWINDi_r2_v1.2.,2013-07-02 16:07:00,
2013-07-02 12:13:00,74.7,70.5,30.14,South,184,7.0,12.0,87,0.00,,,0.00,424,HR-IXPWINDi_r2_v1.2.,2013-07-02 16:13:00,
2013-07-02 12:18:00,74.9,70.7,30.15,South,180,12.0,13.0,87,0.00,,,0.00,429,HR-IXPWINDi_r2_v1.2.,2013-07-02 16:18:00,
2013-07-02 12:23:00,75.1,70.6,30.15,South,187,9.0,13.0,86,0.00,,,0.00,269,HR-IXPWINDi_r2_v1.2.,2013-07-02 16:23:00,
2013-07-02 12:28:00,74.8,70.6,30.15,SSE,165,3.0,13.0,87,0.00,,,0.00,234,HR-IXPWINDi_r2_v1.2.,2013-07-02 16:28:00,
2013-07-02 12:33:00,74.8,70.9,30.14,SSE,159,2.0,10.0,88,0.00,,,0.00,316,HR-IXPWINDi_r2_v1.2.,2013-07-02 16:33:00,
2013-07-02 12:39:00,75.2,70.7,30.14,SSE,151,5.0,8.0,86,0.00,,,0.00,418,HR-IXPWINDi_r2_v1.2.,2013-07-02 16:39:00,
2013-07-02 12:44:00,75.8,71.6,30.14,SE,130,4.0,8.0,87,0.00,,,0.00,355,HR-IXPWINDi_r2_v1.2.,2013-07-02 16:44:00,
2013-07-02 12:49:00,75.5,70.6,30.14,SSE,161,8.0,8.0,85,0.00,,,0.00,200,HR-IXPWINDi_r2_v1.2.,2013-07-02 16:49:00,
2013-07-02 12:54:00,74.5,70.0,30.14,SSE,163,7.0,10.0,86,0.00,,,0.00,258,HR-IXPWINDi_r2_v1.2.,2013-07-02 16:54:00,
2013-07-02 12:59:00,73.7,69.5,30.14,ESE,111,5.0,10.0,87,0.00,,,0.00,211,HR-IXPWINDi_r2_v1.2.,2013-07-02 16:59:00,
2013-07-02 13:04:00,73.7,69.9,30.14,SE,137,4.0,8.0,88,0.00,,,0.00,216,HR-IXPWINDi_r2_v1.2.,2013-07-02 17:04:00,
2013-07-02 13:10:00,74.0,70.2,30.14,SSE,153,3.0,8.0,88,0.00,,,0.00,271,HR-IXPWINDi_r2_v1.2.,2013-07-02 17:10:00,
2013-07-02 13:15:00,74.1,70.3,30.14,SSE,161,3.0,7.0,88,0.00,,,0.00,251,HR-IXPWINDi_r2_v1.2.,2013-07-02 17:15:00,
2013-07-02 13:20:00,74.7,70.5,30.14,SSE,153,3.0,8.0,87,0.00,,,0.00,357,HR-IXPWINDi_r2_v1.2.,2013-07-02 17:20:00,
2013-07-02 13:26:00,74.8,70.3,30.14,SE,132,5.0,8.0,86,0.00,,,0.00,406,HR-IXPWINDi_r2_v1.2.,2013-07-02 17:26:00,
2013-07-02 13:31:00,74.9,70.4,30.14,SE,138,2.0,7.0,86,0.00,,,0.00,380,HR-IXPWINDi_r2_v1.2.,2013-07-02 17:31:00,
2013-07-02 13:36:00,75.2,71.0,30.14,SSE,165,2.0,5.0,87,0.00,,,0.00,369,HR-IXPWINDi_r2_v1.2.,2013-07-02 17:36:00,
2013-07-02 13:41:00,75.7,71.5,30.14,SSE,161,5.0,6.0,87,0.00,,,0.00,364,HR-IXPWINDi_r2_v1.2.,2013-07-02 17:41:00,
2013-07-02 13:46:00,76.0,71.5,30.14,SSE,158,3.0,7.0,86,0.00,,,0.00,357,HR-IXPWINDi_r2_v1.2.,2013-07-02 17:46:00,
2013-07-02 13:51:00,76.1,71.2,30.15,South,171,3.0,7.0,85,0.00,,,0.00,454,HR-IXPWINDi_r2_v1.2.,2013-07-02 17:51:00,
2013-07-02 13:56:00,75.9,71.0,30.15,South,171,1.0,5.0,85,0.00,,,0.00,178,HR-IXPWINDi_r2_v1.2.,2013-07-02 17:56:00,
2013-07-02 14:01:00,75.6,71.4,30.15,SE,134,2.0,7.0,87,0.00,,,0.00,123,HR-IXPWINDi_r2_v1.2.,2013-07-02 18:01:00,
2013-07-02 14:07:00,75.5,71.3,30.15,SSE,151,0.0,7.0,87,0.00,,,0.00,151,HR-IXPWINDi_r2_v1.2.,2013-07-02 18:07:00,
2013-07-02 14:13:00,75.1,69.2,30.15,NE,38,6.0,10.0,82,0.00,,,0.00,230,HR-IXPWINDi_r2_v1.2.,2013-07-02 18:13:00,
2013-07-02 14:18:00,73.1,67.9,30.15,NNE,22,6.0,11.0,84,0.00,,,0.00,176,HR-IXPWINDi_r2_v1.2.,2013-07-02 18:18:00,
2013-07-02 14:23:00,71.9,66.7,30.15,NNE,22,7.0,13.0,84,0.00,,,0.00,185,HR-IXPWINDi_r2_v1.2.,2013-07-02 18:23:00,
2013-07-02 14:28:00,71.2,66.7,30.15,NNE,26,8.0,13.0,86,0.00,,,0.00,169,HR-IXPWINDi_r2_v1.2.,2013-07-02 18:28:00,
2013-07-02 14:33:00,70.8,66.7,30.15,NNE,12,7.0,13.0,87,0.00,,,0.00,163,HR-IXPWINDi_r2_v1.2.,2013-07-02 18:33:00,
2013-07-02 14:39:00,70.7,66.6,30.15,NNE,32,10.0,12.0,87,0.00,,,0.00,276,HR-IXPWINDi_r2_v1.2.,2013-07-02 18:39:00,
2013-07-02 14:44:00,70.0,65.9,30.15,NNE,30,9.0,15.0,87,0.00,,,0.00,185,HR-IXPWINDi_r2_v1.2.,2013-07-02 18:44:00,
2013-07-02 14:49:00,69.6,65.8,30.15,NNE,23,14.0,15.0,88,0.00,,,0.00,420,HR-IXPWINDi_r2_v1.2.,2013-07-02 18:49:00,
2013-07-02 14:54:00,69.4,65.3,30.15,NNE,26,11.0,16.0,87,0.00,,,0.00,675,HR-IXPWINDi_r2_v1.2.,2013-07-02 18:54:00,
2013-07-02 14:59:00,69.9,65.1,30.15,North,9,10.0,16.0,85,0.00,,,0.00,408,HR-IXPWINDi_r2_v1.2.,2013-07-02 18:59:00,
2013-07-02 15:05:00,70.4,65.6,30.15,North,11,9.0,14.0,85,0.00,,,0.00,1106,HR-IXPWINDi_r2_v1.2.,2013-07-02 19:05:00,
2013-07-02 15:10:00,70.9,65.4,30.15,NNE,14,8.0,15.0,83,0.00,,,0.00,770,HR-IXPWINDi_r2_v1.2.,2013-07-02 19:10:00,
2013-07-02 15:15:00,71.4,65.2,30.15,NNE,23,12.0,16.0,81,0.00,,,0.00,691,HR-IXPWINDi_r2_v1.2.,2013-07-02 19:15:00,
2013-07-02 15:20:00,70.4,64.6,30.15,NNE,25,12.0,16.0,82,0.00,,,0.00,251,HR-IXPWINDi_r2_v1.2.,2013-07-02 19:20:00,
2013-07-02 15:25:00,69.7,64.2,30.15,NNE,22,13.0,16.0,83,0.00,,,0.00,524,HR-IXPWINDi_r2_v1.2.,2013-07-02 19:25:00,
2013-07-02 15:31:00,70.6,65.1,30.15,NNE,16,6.0,15.0,83,0.00,,,0.00,403,HR-IXPWINDi_r2_v1.2.,2013-07-02 19:31:00,
2013-07-02 15:36:00,71.1,65.3,30.14,NE,40,6.0,13.0,82,0.00,,,0.00,294,HR-IXPWINDi_r2_v1.2.,2013-07-02 19:36:00,
2013-07-02 15:41:00,70.6,64.8,30.14,NE,35,9.0,13.0,82,0.00,,,0.00,264,HR-IXPWINDi_r2_v1.2.,2013-07-02 19:41:00,
2013-07-02 15:46:00,70.1,64.3,30.14,NE,47,8.0,13.0,82,0.00,,,0.00,408,HR-IXPWINDi_r2_v1.2.,2013-07-02 19:46:00,
2013-07-02 15:51:00,69.5,64.0,30.14,North,11,8.0,14.0,83,0.00,,,0.00,327,HR-IXPWINDi_r2_v1.2.,2013-07-02 19:51:00,
2013-07-02 15:56:00,69.0,63.9,30.14,NNE,22,8.0,15.0,84,0.00,,,0.00,318,HR-IXPWINDi_r2_v1.2.,2013-07-02 19:56:00,
2013-07-02 16:02:00,68.6,63.5,30.14,NNE,26,12.0,17.0,84,0.00,,,0.00,283,HR-IXPWINDi_r2_v1.2.,2013-07-02 20:02:00,
2013-07-02 16:07:00,68.5,63.7,30.14,North,10,10.0,17.0,85,0.00,,,0.00,262,HR-IXPWINDi_r2_v1.2.,2013-07-02 20:07:00,
2013-07-02 16:12:00,68.4,63.6,30.14,NE,36,10.0,17.0,85,0.00,,,0.00,213,HR-IXPWINDi_r2_v1.2.,2013-07-02 20:12:00,
2013-07-02 16:18:00,68.3,63.6,30.14,NNE,13,10.0,15.0,85,0.00,,,0.00,199,HR-IXPWINDi_r2_v1.2.,2013-07-02 20:18:00,
2013-07-02 16:23:00,68.4,63.6,30.14,NNE,13,10.0,15.0,85,0.00,,,0.00,322,HR-IXPWINDi_r2_v1.2.,2013-07-02 20:23:00,
2013-07-02 16:28:00,68.2,63.8,30.14,North,9,8.0,14.0,86,0.00,,,0.00,352,HR-IXPWINDi_r2_v1.2.,2013-07-02 20:28:00,
2013-07-02 16:33:00,67.7,63.3,30.14,North,360,9.0,15.0,86,0.00,,,0.00,234,HR-IXPWINDi_r2_v1.2.,2013-07-02 20:33:00,
2013-07-02 16:39:00,67.6,63.2,30.14,North,360,15.0,16.0,86,0.00,,,0.00,262,HR-IXPWINDi_r2_v1.2.,2013-07-02 20:39:00,
2013-07-02 16:44:00,67.4,63.0,30.14,NNE,17,13.0,16.0,86,0.00,,,0.00,234,HR-IXPWINDi_r2_v1.2.,2013-07-02 20:44:00,
2013-07-02 16:49:00,67.3,62.9,30.14,NNE,24,14.0,17.0,86,0.00,,,0.00,195,HR-IXPWINDi_r2_v1.2.,2013-07-02 20:49:00,
2013-07-02 16:54:00,67.6,63.2,30.14,NE,51,10.0,18.0,86,0.00,,,0.00,443,HR-IXPWINDi_r2_v1.2.,2013-07-02 20:54:00,
2013-07-02 17:00:00,68.5,63.4,30.14,NE,38,12.0,18.0,84,0.00,,,0.00,522,HR-IXPWINDi_r2_v1.2.,2013-07-02 21:00:00,
2013-07-02 17:05:00,68.8,63.4,30.14,NNE,26,8.0,15.0,83,0.00,,,0.00,526,HR-IXPWINDi_r2_v1.2.,2013-07-02 21:05:00,
2013-07-02 17:10:00,68.4,63.0,30.14,North,360,7.0,15.0,83,0.00,,,0.00,336,HR-IXPWINDi_r2_v1.2.,2013-07-02 21:10:00,
2013-07-02 17:15:00,69.2,63.8,30.14,NNE,17,8.0,15.0,83,0.00,,,0.00,260,HR-IXPWINDi_r2_v1.2.,2013-07-02 21:15:00,
2013-07-02 17:21:00,68.8,63.0,30.15,NNE,23,6.0,15.0,82,0.00,,,0.00,139,HR-IXPWINDi_r2_v1.2.,2013-07-02 21:21:00,
2013-07-02 17:26:00,67.6,62.5,30.15,NNE,18,10.0,16.0,84,0.00,,,0.00,144,HR-IXPWINDi_r2_v1.2.,2013-07-02 21:26:00,
2013-07-02 17:31:00,66.6,62.5,30.14,NNE,26,12.0,16.0,87,0.00,,,0.00,193,HR-IXPWINDi_r2_v1.2.,2013-07-02 21:31:00,
2013-07-02 17:36:00,66.7,62.6,30.14,NNE,15,14.0,16.0,87,0.00,,,0.00,489,HR-IXPWINDi_r2_v1.2.,2013-07-02 21:36:00,
2013-07-02 17:41:00,67.4,62.7,30.14,NNE,17,14.0,18.0,85,0.00,,,0.00,369,HR-IXPWINDi_r2_v1.2.,2013-07-02 21:41:00,
2013-07-02 17:47:00,66.8,62.4,30.14,NNE,32,9.0,19.0,86,0.00,,,0.00,139,HR-IXPWINDi_r2_v1.2.,2013-07-02 21:47:00,
2013-07-02 17:52:00,66.5,62.1,30.15,NNE,22,7.0,19.0,86,0.00,,,0.00,148,HR-IXPWINDi_r2_v1.2.,2013-07-02 21:52:00,
2013-07-02 17:57:00,66.2,62.1,30.15,North,360,5.0,17.0,87,0.00,,,0.00,155,HR-IXPWINDi_r2_v1.2.,2013-07-02 21:57:00,
2013-07-02 18:03:00,66.1,62.1,30.16,NE,35,10.0,16.0,87,0.00,,,0.00,153,HR-IXPWINDi_r2_v1.2.,2013-07-02 22:03:00,
2013-07-02 18:08:00,66.1,62.1,30.16,NE,53,4.0,15.0,87,0.00,,,0.00,190,HR-IXPWINDi_r2_v1.2.,2013-07-02 22:08:00,
2013-07-02 18:13:00,66.4,62.3,30.16,NNE,22,5.0,13.0,87,0.00,,,0.00,121,HR-IXPWINDi_r2_v1.2.,2013-07-02 22:13:00,
2013-07-02 18:18:00,66.1,61.7,30.16,NNE,20,10.0,11.0,86,0.00,,,0.00,111,HR-IXPWINDi_r2_v1.2.,2013-07-02 22:18:00,
2013-07-02 18:24:00,65.5,61.5,30.17,NNE,19,13.0,13.0,87,0.00,,,0.00,77,HR-IXPWINDi_r2_v1.2.,2013-07-02 22:24:00,
2013-07-02 18:29:00,64.8,61.1,30.17,NNE,24,11.0,13.0,88,0.00,,,0.00,69,HR-IXPWINDi_r2_v1.2.,2013-07-02 22:29:00,
2013-07-02 18:34:00,64.3,60.9,30.17,NE,39,7.0,13.0,89,0.00,,,0.00,91,HR-IXPWINDi_r2_v1.2.,2013-07-02 22:34:00,
2013-07-02 18:39:00,64.1,60.7,30.17,NNE,25,8.0,13.0,89,0.00,,,0.00,83,HR-IXPWINDi_r2_v1.2.,2013-07-02 22:39:00,
2013-07-02 18:44:00,64.1,60.7,30.17,NNE,30,8.0,13.0,89,0.00,,,0.00,40,HR-IXPWINDi_r2_v1.2.,2013-07-02 22:44:00,
2013-07-02 18:49:00,63.8,60.4,30.17,NNE,13,8.0,13.0,89,0.00,,,0.00,63,HR-IXPWINDi_r2_v1.2.,2013-07-02 22:49:00,
2013-07-02 18:54:00,63.5,60.4,30.18,NNE,26,11.0,13.0,90,0.00,,,0.00,70,HR-IXPWINDi_r2_v1.2.,2013-07-02 22:54:00,
2013-07-02 18:59:00,63.6,60.9,30.17,NE,38,8.0,13.0,91,0.00,,,0.00,236,HR-IXPWINDi_r2_v1.2.,2013-07-02 22:59:00,
2013-07-02 19:04:00,63.8,61.4,30.17,ENE,78,5.0,12.0,92,0.00,,,0.00,162,HR-IXPWINDi_r2_v1.2.,2013-07-02 23:04:00,
2013-07-02 19:10:00,63.6,61.2,30.17,NNE,27,5.0,12.0,92,0.00,,,0.00,86,HR-IXPWINDi_r2_v1.2.,2013-07-02 23:10:00,
2013-07-02 19:15:00,63.3,60.9,30.17,North,5,3.0,12.0,92,0.00,,,0.00,72,HR-IXPWINDi_r2_v1.2.,2013-07-02 23:15:00,
2013-07-02 19:20:00,63.1,60.7,30.18,NNE,29,11.0,12.0,92,0.00,,,0.00,32,HR-IXPWINDi_r2_v1.2.,2013-07-02 23:20:00,
2013-07-02 19:25:00,62.5,60.4,30.18,NNE,26,6.0,13.0,93,0.00,,,0.00,46,HR-IXPWINDi_r2_v1.2.,2013-07-02 23:25:00,
2013-07-02 19:30:00,62.1,60.0,30.18,North,355,7.0,13.0,93,0.00,,,0.00,19,HR-IXPWINDi_r2_v1.2.,2013-07-02 23:30:00,
2013-07-02 19:35:00,61.9,59.8,30.18,NNE,13,7.0,12.0,93,0.00,,,0.00,14,HR-IXPWINDi_r2_v1.2.,2013-07-02 23:35:00,
2013-07-02 19:41:00,61.9,60.1,30.18,NNE,31,4.0,12.0,94,0.00,,,0.00,19,HR-IXPWINDi_r2_v1.2.,2013-07-02 23:41:00,
2013-07-02 19:46:00,61.9,60.1,30.18,ENE,67,3.0,9.0,94,0.00,,,0.00,16,HR-IXPWINDi_r2_v1.2.,2013-07-02 23:46:00,
2013-07-02 19:51:00,61.8,60.0,30.18,NNE,17,2.0,10.0,94,0.00,,,0.00,12,HR-IXPWINDi_r2_v1.2.,2013-07-02 23:51:00,
2013-07-02 19:56:00,61.8,60.0,30.18,NNE,15,6.0,10.0,94,0.00,,,0.00,7,HR-IXPWINDi_r2_v1.2.,2013-07-02 23:56:00,
2013-07-02 20:01:00,61.6,59.8,30.18,NE,37,6.0,9.0,94,0.00,,,0.00,9,HR-IXPWINDi_r2_v1.2.,2013-07-03 00:01:00,
2013-07-02 20:07:00,61.3,59.5,30.19,North,5,6.0,9.0,94,0.00,,,0.00,9,HR-IXPWINDi_r2_v1.2.,2013-07-03 00:07:00,
2013-07-02 20:12:00,61.2,59.4,30.19,North,350,3.0,9.0,94,0.00,,,0.00,0,HR-IXPWINDi_r2_v1.2.,2013-07-03 00:12:00,
2013-07-02 20:17:00,61.1,59.3,30.19,NNE,13,0.0,6.0,94,0.00,,,0.00,0,HR-IXPWINDi_r2_v1.2.,2013-07-03 00:17:00,
2013-07-02 20:22:00,61.2,59.4,30.18,NNE,26,1.0,7.0,94,0.00,,,0.00,0,HR-IXPWINDi_r2_v1.2.,2013-07-03 00:22:00,
2013-07-02 20:28:00,61.2,59.4,30.19,NE,35,7.0,7.0,94,0.00,,,0.00,0,HR-IXPWINDi_r2_v1.2.,2013-07-03 00:28:00,
2013-07-02 20:33:00,61.1,59.3,30.18,NNE,24,5.0,7.0,94,0.00,,,0.00,0,HR-IXPWINDi_r2_v1.2.,2013-07-03 00:33:00,
2013-07-02 20:38:00,61.1,59.3,30.18,NNE,20,5.0,7.0,94,0.00,,,0.00,0,HR-IXPWINDi_r2_v1.2.,2013-07-03 00:38:00,
2013-07-02 20:43:00,61.0,59.2,30.19,NE,36,4.0,8.0,94,0.00,,,0.00,0,HR-IXPWINDi_r2_v1.2.,2013-07-03 00:43:00,
2013-07-02 20:48:00,61.0,59.5,30.19,NE,42,6.0,8.0,95,0.00,,,0.00,0,HR-IXPWINDi_r2_v1.2.,2013-07-03 00:48:00,
2013-07-02 20:53:00,61.0,59.5,30.19,NNW,347,7.0,7.0,95,0.00,,,0.00,0,HR-IXPWINDi_r2_v1.2.,2013-07-03 00:53:00,
2013-07-02 20:58:00,61.0,59.5,30.19,NNE,16,4.0,7.0,95,0.00,,,0.00,0,HR-IXPWINDi_r2_v1.2.,2013-07-03 00:58:00,
2013-07-02 21:03:00,60.9,59.4,30.19,NNE,15,1.0,8.0,95,0.00,,,0.00,0,HR-IXPWINDi_r2_v1.2.,2013-07-03 01:03:00,
2013-07-02 21:08:00,60.8,59.3,30.20,NNE,19,5.0,8.0,95,0.00,,,0.00,0,HR-IXPWINDi_r2_v1.2.,2013-07-03 01:08:00,
2013-07-02 21:13:00,60.8,59.3,30.20,NNE,24,3.0,6.0,95,0.00,,,0.00,0,HR-IXPWINDi_r2_v1.2.,2013-07-03 01:13:00,
2013-07-02 21:18:00,60.8,59.3,30.20,NNE,17,1.0,6.0,95,0.00,,,0.00,0,HR-IXPWINDi_r2_v1.2.,2013-07-03 01:18:00,
2013-07-02 21:23:00,60.7,59.2,30.20,NNE,19,2.0,5.0,95,0.00,,,0.00,0,HR-IXPWINDi_r2_v1.2.,2013-07-03 01:23:00,
2013-07-02 21:26:00,60.8,59.3,30.20,NNE,23,4.0,5.0,95,0.00,,,0.00,0,HR-IXPWINDi_r2_v1.2.,2013-07-03 01:26:00,
2013-07-02 21:31:00,60.8,59.3,30.20,North,355,5.0,6.0,95,0.00,,,0.00,0,HR-IXPWINDi_r2_v1.2.,2013-07-03 01:31:00,
2013-07-02 21:36:00,60.8,59.3,30.21,NNE,22,4.0,8.0,95,0.00,,,0.00,0,HR-IXPWINDi_r2_v1.2.,2013-07-03 01:36:00,
2013-07-02 21:41:00,60.8,59.3,30.21,NNE,29,5.0,8.0,95,0.00,,,0.00,0,HR-IXPWINDi_r2_v1.2.,2013-07-03 01:41:00,
2013-07-02 21:46:00,60.9,59.4,30.21,NNE,12,2.0,8.0,95,0.00,,,0.00,0,HR-IXPWINDi_r2_v1.2.,2013-07-03 01:46:00,
2013-07-02 21:52:00,60.9,59.4,30.21,North,11,5.0,6.0,95,0.00,,,0.00,0,HR-IXPWINDi_r2_v1.2.,2013-07-03 01:52:00,
2013-07-02 21:57:00,61.0,59.5,30.21,North,355,2.0,6.0,95,0.00,,,0.00,0,HR-IXPWINDi_r2_v1.2.,2013-07-03 01:57:00,
2013-07-02 22:02:00,61.1,59.6,30.21,North,355,2.0,5.0,95,0.00,,,0.00,0,HR-IXPWINDi_r2_v1.2.,2013-07-03 02:02:00,
2013-07-02 22:07:00,61.1,59.6,30.21,North,355,2.0,6.0,95,0.00,,,0.00,0,HR-IXPWINDi_r2_v1.2.,2013-07-03 02:07:00,
2013-07-02 22:13:00,61.1,59.6,30.21,North,5,3.0,6.0,95,0.00,,,0.00,0,HR-IXPWINDi_r2_v1.2.,2013-07-03 02:13:00,
2013-07-02 22:18:00,61.1,59.6,30.21,NNE,17,5.0,7.0,95,0.00,,,0.00,0,HR-IXPWINDi_r2_v1.2.,2013-07-03 02:18:00,
2013-07-02 22:23:00,61.1,59.6,30.21,North,5,6.0,7.0,95,0.00,,,0.00,0,HR-IXPWINDi_r2_v1.2.,2013-07-03 02:23:00,
2013-07-02 22:28:00,61.1,59.6,30.21,NNE,15,5.0,7.0,95,0.00,,,0.00,0,HR-IXPWINDi_r2_v1.2.,2013-07-03 02:28:00,
2013-07-02 22:33:00,61.1,59.6,30.21,NE,44,4.0,6.0,95,0.00,,,0.00,0,HR-IXPWINDi_r2_v1.2.,2013-07-03 02:33:00,
2013-07-02 22:39:00,61.1,59.6,30.20,NE,36,5.0,6.0,95,0.00,,,0.00,0,HR-IXPWINDi_r2_v1.2.,2013-07-03 02:39:00,
2013-07-02 22:44:00,61.1,59.6,30.20,NNE,19,3.0,7.0,95,0.00,,,0.00,0,HR-IXPWINDi_r2_v1.2.,2013-07-03 02:44:00,
2013-07-02 22:49:00,61.1,59.6,30.20,North,10,3.0,7.0,95,0.00,,,0.00,0,HR-IXPWINDi_r2_v1.2.,2013-07-03 02:49:00,
2013-07-02 22:54:00,61.1,59.6,30.20,North,9,4.0,7.0,95,0.00,,,0.00,0,HR-IXPWINDi_r2_v1.2.,2013-07-03 02:54:00,
2013-07-02 22:59:00,61.0,59.5,30.20,NNE,24,8.0,8.0,95,0.00,,,0.00,0,HR-IXPWINDi_r2_v1.2.,2013-07-03 02:59:00,
2013-07-02 23:04:00,61.0,59.5,30.19,NNE,15,6.0,8.0,95,0.00,,,0.00,0,HR-IXPWINDi_r2_v1.2.,2013-07-03 03:04:00,
2013-07-02 23:10:00,60.9,59.4,30.20,NNE,29,5.0,8.0,95,0.00,,,0.00,0,HR-IXPWINDi_r2_v1.2.,2013-07-03 03:10:00,
2013-07-02 23:15:00,60.9,59.4,30.20,NNE,13,5.0,8.0,95,0.00,,,0.00,0,HR-IXPWINDi_r2_v1.2.,2013-07-03 03:15:00,
2013-07-02 23:21:00,60.9,59.4,30.20,NNE,16,5.0,8.0,95,0.00,,,0.00,0,HR-IXPWINDi_r2_v1.2.,2013-07-03 03:21:00,
2013-07-02 23:26:00,60.9,59.7,30.20,NE,34,5.0,7.0,96,0.00,,,0.00,0,HR-IXPWINDi_r2_v1.2.,2013-07-03 03:26:00,
2013-07-02 23:31:00,60.9,59.7,30.20,NNE,13,5.0,8.0,96,0.00,,,0.00,0,HR-IXPWINDi_r2_v1.2.,2013-07-03 03:31:00,
2013-07-02 23:35:00,60.9,59.7,30.20,ENE,57,3.0,8.0,96,0.00,,,0.00,0,HR-IXPWINDi_r2_v1.2.,2013-07-03 03:35:00,
2013-07-02 23:40:00,61.0,59.8,30.20,NNE,28,3.0,8.0,96,0.00,,,0.00,0,HR-IXPWINDi_r2_v1.2.,2013-07-03 03:40:00,
2013-07-02 23:45:00,61.1,59.9,30.20,North,5,7.0,8.0,96,0.00,,,0.00,0,HR-IXPWINDi_r2_v1.2.,2013-07-03 03:45:00,
2013-07-02 23:50:00,61.0,59.8,30.20,North,11,4.0,8.0,96,0.00,,,0.00,0,HR-IXPWINDi_r2_v1.2.,2013-07-03 03:50:00,
2013-07-02 23:55:00,61.0,59.8,30.20,NNE,17,7.0,8.0,96,0.00,,,0.00,0,HR-IXPWINDi_r2_v1.2.,2013-07-03 03:55:00,